AKUREYRI current weather conditions

sailwx.info

Wind from 300 at 4 knots

Visibility: greater than 5.4 NM
Present weather: Light snow.

Last reported at 2020-Feb-18 12:00 UTC.
Time now 2020-Feb-18 13:03 UTC

Location: N 65°41' W 018°04'.
View on Google Maps.

See reports from other nearby stations

  
Tides and Currents Weather Stations Pressure Air Temp Water Temp Dewpoint Dewpoint Depression Visibility Wind Speed Wind Dir Waves Ship Positions
date/time (UTC)wind fromknots sea level pressurealtimeterstation pressurevisibilityair tempwater tempwave heightnotes
2020-Feb-18 12:00 300 4 5.4 Light snow.
2020-Feb-18 11:00 080 2 5.419.0 Light snow.
2020-Feb-18 10:00 310 2 1.9-0.0 Light snow.
2020-Feb-18 09:00 320 2 1.8-0.0 Light snow.
2020-Feb-18 08:00 320 4 4.9-0.0 Light snow.
2020-Feb-18 07:00 340 4 2.7-0.0 Light snow.
2020-Feb-18 06:00 300 6 5.4-0.0 Light snow.
2020-Feb-18 05:00 280 4 5.4-0.0 Light snow.
2020-Feb-18 04:00 300 6 3.2-0.0 Light snow.
2020-Feb-18 03:00 320 8 1.8-0.0 Light snow.
2020-Feb-18 02:00 320 7 2.1-0.0 Light snow.
2020-Feb-18 01:00 330 7 1.8-0.0 Light snow.
2020-Feb-18 00:00 330 8 1.5-0.0 Light snow.
2020-Feb-17 23:00 330 7 1.5-0.0 Light snow.
2020-Feb-17 22:00 320 7 2.7-0.0 Light snow.
2020-Feb-17 21:00 330 8 2.1-0.0 Light snow.
2020-Feb-17 20:00 330 9 2.4-0.0 Light snow.
2020-Feb-17 19:00 330 12 2.7-0.0 Light snow.
2020-Feb-17 18:00 340 13 1.3-0.0 Light snow.
2020-Feb-17 17:00 340 11 1.3-0.0 Light snow.
2020-Feb-17 16:00 330 12 1.1-0.0 Light snow.
2020-Feb-17 15:44 330 13 1.0-0.0 Light snow.
2020-Feb-17 15:08 330 11 1.4-0.0 Light snow.
2020-Feb-17 15:00 330 13 1.2-0.0 Light snow.
2020-Feb-17 14:17 330 12 0.6-0.0 Snow.
2020-Feb-17 14:16 330 12 3.8-0.0 Light snow.
2020-Feb-17 14:00 340 13 5.4 1.0 Light rain.
2020-Feb-17 13:00 330 12 3.8 1.0 Light snow.
2020-Feb-17 12:00 340 13 4.9 1.0 Light rain.
2020-Feb-17 11:00 320 13 3.8 1.0 Light snow.
2020-Feb-17 10:00 330 17 2.7 1.0 Light snow.
2020-Feb-17 09:00 300 13 3.8 1.0 Light rain.
2020-Feb-17 08:00 320 9 4.9 1.0 Light rain.
2020-Feb-17 07:00 360 17 5.4 2.0 Light rain.
2020-Feb-17 06:00 040 26 gusting 35 5.4 3.0 Light rain.
2020-Feb-17 05:00 040 17 5.4 2.0 Light rain.
2020-Feb-17 04:00 030 20 5.4 2.0
2020-Feb-17 03:00 350 20 3.8 2.0 Drizzle.
2020-Feb-17 02:00 330 18 4.3 1.0 Light snow.
2020-Feb-17 01:00 330 24 gusting 38 3.2 1.0 Light snow.
2020-Feb-17 00:00 330 22 gusting 33 2.5 1.0 Light snow.
2020-Feb-16 23:00 330 21 1.5 1.0 Light snow.
2020-Feb-16 22:00 330 17 3.2 1.0 Light snow.
2020-Feb-16 21:00 330 13 2.5 1.0 Light snow.
2020-Feb-16 20:00 330 13 2.4 1.0 Light snow.
2020-Feb-16 19:00 330 14 2.5 1.0 Light snow.
2020-Feb-16 18:00 340 13 2.7 1.0 Light rain.
2020-Feb-16 17:00 330 8 3.8 1.0 Light rain.
2020-Feb-16 16:00 340 7 3.2 1.0 Light drizzle snow.
2020-Feb-16 15:00 330 7 3.2 2.0 Light rain. Mist.
2020-Feb-16 14:00 320 6 5.4 3.0
2020-Feb-16 13:00 310 6 5.4 2.0